Flag for Tajikistan Weather past 2 weeks in Dushanbe, Tajikistan

48 °F


Feels Like: 48 °F
Forecast: 38 / 56 °F
Wind: No wind

Location: Dushanbe Airport

Current Time: Nov 30, 2015 at 10:08:28 PM

Latest Report: Nov 30, 2015 at 9:30 PM

Visibility: 4 mi

Pressure: 30.15 "Hg (27.26 "Hg at 832m altitude)

Humidity: 66%

Dew point: 37 °F

Location of DushanbeLocation

Historic Weather in Dushanbe — Graph


Dushanbe temperature yesterday

Maximum temperature yesterday: 54 °F (at 1:00 PM)
Minimum temperature yesterday: 37 °F (at 5:30 AM)
Average temperature yesterday: 46 °F

Past Weeks' High & Low Weather Summary

High70 °F (Nov 18, 2:00 PM)100% (Nov 16, 4:00 AM)30.42 "Hg (Nov 16, 4:00 AM)
Low32 °F (Nov 16, 3:30 AM)19% (Nov 27, 1:30 PM)29.95 "Hg (Nov 19, 1:30 AM)
Average48 °F71%30.21 "Hg
* Reported Nov 15 8:00 PM — Nov 30 8:30 PM, Dushanbe, Weather by CustomWeather, © 2015

Note: Actual official high and low records may vary slightly from our data, if they occured in-between our weather recording intervals... More about our weather records


Dushanbe weather history for previous 24 hours

Time TempWeatherWind HumidityBarometerVisibility
8:30 PM
Mon, Nov 30
50 °FClear.No wind62%30.15 "Hg3 mi
8:00 PM50 °FClear.No wind62%30.15 "Hg3 mi
7:30 PM54 °FClear.1 mph54%30.15 "Hg3 mi
7:00 PM55 °FClear.3 mph51%30.15 "Hg3 mi
6:30 PM57 °FClear.1 mph48%30.15 "Hg3 mi
6:00 PM59 °FClear.3 mph45%30.15 "Hg3 mi
5:30 PM61 °FClear.8 mph36%30.15 "HgN/A
5:00 PM63 °FClear.6 mph34%30.15 "HgN/A
4:30 PM64 °FClear.6 mph37%30.15 "HgN/A
4:00 PM66 °FClear.1 mph35%30.15 "Hg4 mi
3:30 PM68 °FClear.No wind40%30.12 "Hg2 mi
3:00 PM66 °FClear.1 mph40%30.15 "Hg2 mi
2:30 PM66 °FClear.1 mph40%30.15 "Hg1 mi
2:00 PM64 °FClear.3 mph46%30.15 "Hg1 mi
1:30 PM64 °FClear.3 mph46%30.15 "Hg2 mi
1:00 PM64 °FClear.1 mph43%30.18 "Hg2 mi
12:30 PM63 °FClear.No wind45%30.18 "Hg1 mi
12:00 PM57 °FClear.3 mph55%30.21 "Hg1 mi
11:30 AM59 °FClear.No wind51%30.21 "Hg1 mi
11:00 AM55 °FRefreshingly cool.1 mph55%30.24 "Hg1 mi
10:30 AM52 °FCool.1 mph67%30.24 "Hg1 mi
10:00 AM48 °FFog.1 mph66%30.24 "Hg1 mi
9:30 AM46 °FFog.1 mph76%30.27 "Hg1 mi
8:30 AM39 °FFog.1 mph87%30.27 "Hg1 mi
8:00 AM39 °FFog.No wind87%30.24 "Hg1 mi
7:30 AM39 °FFog.1 mph87%30.24 "Hg2 mi
7:00 AM37 °FFog.No wind87%30.24 "Hg3 mi
6:30 AM39 °FFog.No wind87%30.24 "Hg3 mi
5:30 AM41 °FFog.1 mph81%30.24 "Hg3 mi
5:00 AM41 °FFog.3 mph81%30.24 "Hg3 mi
4:30 AM43 °FFog.1 mph76%30.24 "Hg3 mi
4:00 AM41 °FFog.6 mph87%30.24 "Hg2 mi
3:30 AM41 °FFog.6 mph87%30.24 "Hg2 mi
3:00 AM41 °FFog.6 mph87%30.24 "Hg2 mi
2:30 AM41 °FFog.3 mph87%30.24 "Hg2 mi
2:00 AM43 °FFog.No wind76%30.24 "Hg2 mi
1:30 AM43 °FFog.1 mph76%30.24 "Hg2 mi
1:00 AM45 °FFog.1 mph76%30.24 "Hg2 mi
12:30 AM43 °FFog.3 mph81%30.24 "Hg2 mi
12:00 AM43 °FFog.1 mph81%30.24 "Hg2 mi
11:30 PM
Sun, Nov 29
45 °FFog.1 mph76%30.24 "Hg2 mi
11:00 PM46 °FFog.1 mph71%30.21 "Hg2 mi
10:30 PM45 °FFog.1 mph76%30.21 "Hg2 mi
10:00 PM46 °FFog.6 mph76%30.21 "Hg2 mi
Weather by CustomWeather, © 2015

See weather overviewHow to use our weather pages